owner,sensor,date,latitude,longitude,vertical_datum,wind_speed,wind_to_direction,wind_speed_of_gust,qcFlag 
TABS,ioos:station:TABS:H:1,2007-01-01T00:00:00Z,27.8674,-96.5433,4.0,1.987687098,121.2112806,2.44,'11111222,11111222,11111222' 
TABS,ioos:station:TABS:H:1,2007-01-01T00:30:00Z,27.8674,-96.5433,4.0,1.656804153,121.6758156,2.3,'11111222,11111222,11111222' 
TABS,ioos:station:TABS:H:1,2007-01-01T01:00:00Z,27.8674,-96.5433,4.0,1.467685252,84.13362166,1.84,'11111222,11111222,11111222' 
TABS,ioos:station:TABS:H:1,2007-01-01T01:30:00Z,27.8674,-96.5433,4.0,1.329661611,74.29097799,1.94,'11111222,11111222,11111222' 
TABS,ioos:station:TABS:H:1,2007-01-01T02:00:00Z,27.8674,-96.5433,4.0,1.026255329,123.0710214,1.5,'11111222,11111222,11111222' 
TABS,ioos:station:TABS:H:1,2007-01-01T02:30:00Z,27.8674,-96.5433,4.0,1.511621646,124.216043,2.1,'11111222,11111222,11111222' 
TABS,ioos:station:TABS:H:1,2007-01-01T03:00:00Z,27.8674,-96.5433,4.0,0.51,90.00042092,1.49,'11111222,11111222,11111222' 
TABS,ioos:station:TABS:H:1,2007-01-01T03:30:00Z,27.8674,-96.5433,4.0,2.440512241,358.8258627,3.08,'11111222,11111222,11111222' 
TABS,ioos:station:TABS:H:1,2007-01-01T04:00:00Z,27.8674,-96.5433,4.0,2.609310254,17.39307102,3.15,'11111222,11111222,11111222' 
TABS,ioos:station:TABS:H:1,2007-01-01T04:30:00Z,27.8674,-96.5433,4.0,7.971731305,29.61979379,9.2,'11111222,11111222,11111222' 
TABS,ioos:station:TABS:H:1,2007-01-01T05:00:00Z,27.8674,-96.5433,4.0,6.754257916,27.70295294,8.05,'11111222,11111222,11111222' 
TABS,ioos:station:TABS:H:1,2007-01-01T05:30:00Z,27.8674,-96.5433,4.0,7.43948923,21.11466293,8.75,'11111222,11111222,11111222' 
TABS,ioos:station:TABS:H:1,2007-01-01T06:00:00Z,27.8674,-96.5433,4.0,7.406915687,25.59610395,9.32,'11111222,11111222,11111222' 
TABS,ioos:station:TABS:H:1,2007-01-01T06:30:00Z,27.8674,-96.5433,4.0,8.117049957,22.29924452,9.61,'11111222,11111222,11111222' 
TABS,ioos:station:TABS:H:1,2007-01-01T07:00:00Z,27.8674,-96.5433,4.0,9.748851214,16.44567509,11.39,'11111222,11111222,11111222' 
TABS,ioos:station:TABS:H:1,2007-01-01T07:30:00Z,27.8674,-96.5433,4.0,9.276017464,16.14877465,10.92,'11111222,11111222,11111222' 
TABS,ioos:station:TABS:H:1,2007-01-01T08:00:00Z,27.8674,-96.5433,4.0,9.177200009,20.60693698,10.59,'11111222,11111222,11111222' 
TABS,ioos:station:TABS:H:1,2007-01-01T08:30:00Z,27.8674,-96.5433,4.0,9.31119756,19.44660551,11.34,'11111222,11111222,11111222' 
TABS,ioos:station:TABS:H:1,2007-01-01T09:00:00Z,27.8674,-96.5433,4.0,10.17440416,16.20814779,12.33,'11111222,11111222,11111222' 
TABS,ioos:station:TABS:H:1,2007-01-01T09:30:00Z,27.8674,-96.5433,4.0,9.531600076,16.26716958,11.95,'11111222,11111222,11111222' 
TABS,ioos:station:TABS:H:1,2007-01-01T10:00:00Z,27.8674,-96.5433,4.0,9.739866529,18.24867109,11.7,'11111222,11111222,11111222' 
TABS,ioos:station:TABS:H:1,2007-01-01T10:30:00Z,27.8674,-96.5433,4.0,10.3946188,18.80074095,12.4,'11111222,11111222,11111222' 
TABS,ioos:station:TABS:H:1,2007-01-01T11:00:00Z,27.8674,-96.5433,4.0,10.12665789,29.19720731,12.05,'11111222,11111222,11111222' 
TABS,ioos:station:TABS:H:1,2007-01-01T11:30:00Z,27.8674,-96.5433,4.0,9.730621768,29.48898187,11.95,'11111222,11111222,11111222' 
TABS,ioos:station:TABS:H:1,2007-01-01T12:00:00Z,27.8674,-96.5433,4.0,9.734526183,31.38742948,11.69,'11111222,11111222,11111222' 
TABS,ioos:station:TABS:H:1,2007-01-01T12:30:00Z,27.8674,-96.5433,4.0,8.894593864,31.67051863,10.61,'11111222,11111222,11111222' 
TABS,ioos:station:TABS:H:1,2007-01-01T13:00:00Z,27.8674,-96.5433,4.0,8.828822118,25.78114842,10.83,'11111222,11111222,11111222' 
TABS,ioos:station:TABS:H:1,2007-01-01T13:30:00Z,27.8674,-96.5433,4.0,8.880478591,28.96032658,10.92,'11111222,11111222,11111222' 
TABS,ioos:station:TABS:H:1,2007-01-01T14:00:00Z,27.8674,-96.5433,4.0,8.988937646,33.56602978,10.65,'11111222,11111222,11111222' 
TABS,ioos:station:TABS:H:1,2007-01-01T14:30:00Z,27.8674,-96.5433,4.0,8.451567902,30.66118613,10.21,'11111222,11111222,11111222' 
TABS,ioos:station:TABS:H:1,2007-01-01T15:00:00Z,27.8674,-96.5433,4.0,8.531412544,25.03285328,10.51,'11111222,11111222,11111222' 
TABS,ioos:station:TABS:H:1,2007-01-01T15:30:00Z,27.8674,-96.5433,4.0,8.144114439,23.82650184,10.06,'11111222,11111222,11111222' 
TABS,ioos:station:TABS:H:1,2007-01-01T16:00:00Z,27.8674,-96.5433,4.0,8.737167733,22.19082549,10.85,'11111222,11111222,11111222' 
TABS,ioos:station:TABS:H:1,2007-01-01T16:30:00Z,27.8674,-96.5433,4.0,6.7773815,15.84063655,8.62,'11111222,11111222,11111222' 
TABS,ioos:station:TABS:H:1,2007-01-01T17:00:00Z,27.8674,-96.5433,4.0,5.90310088,16.83844515,7.52,'11111222,11111222,11111222' 
TABS,ioos:station:TABS:H:1,2007-01-01T17:30:00Z,27.8674,-96.5433,4.0,6.370996782,23.10385657,8.04,'11111222,11111222,11111222' 
TABS,ioos:station:TABS:H:1,2007-01-01T18:00:00Z,27.8674,-96.5433,4.0,6.368272921,8.397072492,8.33,'11111222,11111222,11111222' 
TABS,ioos:station:TABS:H:1,2007-01-01T18:30:00Z,27.8674,-96.5433,4.0,7.180842569,21.74188182,8.66,'11111222,11111222,11111222' 
TABS,ioos:station:TABS:H:1,2007-01-01T19:00:00Z,27.8674,-96.5433,4.0,7.223800939,20.41653961,8.84,'11111222,11111222,11111222' 
TABS,ioos:station:TABS:H:1,2007-01-01T19:30:00Z,27.8674,-96.5433,4.0,7.329699857,21.27857748,9.27,'11111222,11111222,11111222' 
TABS,ioos:station:TABS:H:1,2007-01-01T20:00:00Z,27.8674,-96.5433,4.0,6.455385349,30.53726525,8.28,'11111222,11111222,11111222' 
TABS,ioos:station:TABS:H:1,2007-01-01T20:30:00Z,27.8674,-96.5433,4.0,5.023116562,12.18215065,6.77,'11111222,11111222,11111222' 
TABS,ioos:station:TABS:H:1,2007-01-01T21:00:00Z,27.8674,-96.5433,4.0,4.941275139,8.261059021,6.97,'11111222,11111222,11111222' 
TABS,ioos:station:TABS:H:1,2007-01-01T21:30:00Z,27.8674,-96.5433,4.0,5.78070065,15.14186356,7.42,'11111222,11111222,11111222' 
TABS,ioos:station:TABS:H:1,2007-01-01T22:00:00Z,27.8674,-96.5433,4.0,5.186839115,9.207847539,7.22,'11111222,11111222,11111222' 
TABS,ioos:station:TABS:H:1,2007-01-01T22:30:00Z,27.8674,-96.5433,4.0,4.687824655,6.245486095,6.01,'11111222,11111222,11111222' 
TABS,ioos:station:TABS:H:1,2007-01-01T23:00:00Z,27.8674,-96.5433,4.0,4.699978723,19.51416245,6.81,'11111222,11111222,11111222' 
TABS,ioos:station:TABS:H:1,2007-01-01T23:30:00Z,27.8674,-96.5433,4.0,5.265624369,23.74126081,6.95,'11111222,11111222,11111222' 
TABS,ioos:station:TABS:H:1,2007-01-02T00:00:00Z,27.8674,-96.5433,4.0,5.364932432,32.59376986,7.31,'11111222,11111222,11111222' 
TABS,ioos:station:TABS:H:1,2007-01-02T00:30:00Z,27.8674,-96.5433,4.0,5.297442779,40.63618312,6.47,'11111222,11111222,11111222' 
TABS,ioos:station:TABS:H:1,2007-01-02T01:00:00Z,27.8674,-96.5433,4.0,5.369851022,43.11315801,6.99,'11111222,11111222,11111222' 
TABS,ioos:station:TABS:H:1,2007-01-02T01:30:00Z,27.8674,-96.5433,4.0,5.614712815,44.42241774,6.84,'11111222,11111222,11111222' 
TABS,ioos:station:TABS:H:1,2007-01-02T02:00:00Z,27.8674,-96.5433,4.0,5.5242013,48.22832463,7.24,'11111222,11111222,11111222' 
TABS,ioos:station:TABS:H:1,2007-01-02T02:30:00Z,27.8674,-96.5433,4.0,4.716661955,45.60096586,6.45,'11111222,11111222,11111222' 
TABS,ioos:station:TABS:H:1,2007-01-02T03:00:00Z,27.8674,-96.5433,4.0,5.307099019,51.963715,6.94,'11111222,11111222,11111222' 
TABS,ioos:station:TABS:H:1,2007-01-02T03:30:00Z,27.8674,-96.5433,4.0,4.827131653,42.4809717,6.27,'11111222,11111222,11111222' 
TABS,ioos:station:TABS:H:1,2007-01-02T04:00:00Z,27.8674,-96.5433,4.0,5.048286838,32.87132474,6.41,'11111222,11111222,11111222' 
TABS,ioos:station:TABS:H:1,2007-01-02T04:30:00Z,27.8674,-96.5433,4.0,4.617358552,31.89987186,6.05,'11111222,11111222,11111222' 
TABS,ioos:station:TABS:H:1,2007-01-02T05:00:00Z,27.8674,-96.5433,4.0,4.874474331,36.07028806,6.82,'11111222,11111222,11111222' 
TABS,ioos:station:TABS:H:1,2007-01-02T05:30:00Z,27.8674,-96.5433,4.0,5.66887114,31.95153057,7.93,'11111222,11111222,11111222' 
TABS,ioos:station:TABS:H:1,2007-01-02T06:00:00Z,27.8674,-96.5433,4.0,5.778113879,34.70740477,7.96,'11111222,11111222,11111222' 
TABS,ioos:station:TABS:H:1,2007-01-02T06:30:00Z,27.8674,-96.5433,4.0,5.847401132,38.12390665,7.58,'11111222,11111222,11111222' 
TABS,ioos:station:TABS:H:1,2007-01-02T07:00:00Z,27.8674,-96.5433,4.0,6.266234914,29.75594246,7.74,'11111222,11111222,11111222' 
TABS,ioos:station:TABS:H:1,2007-01-02T07:30:00Z,27.8674,-96.5433,4.0,6.249431974,31.12070611,7.63,'11111222,11111222,11111222' 
TABS,ioos:station:TABS:H:1,2007-01-02T08:00:00Z,27.8674,-96.5433,4.0,6.298102889,25.38485046,7.97,'11111222,11111222,11111222' 
TABS,ioos:station:TABS:H:1,2007-01-02T08:30:00Z,27.8674,-96.5433,4.0,6.093997046,41.27406483,7.97,'11111222,11111222,11111222' 
TABS,ioos:station:TABS:H:1,2007-01-02T09:00:00Z,27.8674,-96.5433,4.0,6.299603162,42.42633087,7.98,'11111222,11111222,11111222' 
TABS,ioos:station:TABS:H:1,2007-01-02T09:30:00Z,27.8674,-96.5433,4.0,6.501115289,43.31683605,8.46,'11111222,11111222,11111222' 
TABS,ioos:station:TABS:H:1,2007-01-02T10:00:00Z,27.8674,-96.5433,4.0,6.116804721,45.59580247,8.31,'11111222,11111222,11111222' 
TABS,ioos:station:TABS:H:1,2007-01-02T10:30:00Z,27.8674,-96.5433,4.0,6.071482521,48.53854859,8.12,'11111222,11111222,11111222' 
TABS,ioos:station:TABS:H:1,2007-01-02T11:00:00Z,27.8674,-96.5433,4.0,5.782361109,49.69931041,7.45,'11111222,11111222,11111222' 
TABS,ioos:station:TABS:H:1,2007-01-02T11:30:00Z,27.8674,-96.5433,4.0,6.700119402,48.26671491,8.45,'11111222,11111222,11111222' 
TABS,ioos:station:TABS:H:1,2007-01-02T12:00:00Z,27.8674,-96.5433,4.0,6.512180894,56.33399223,8.09,'11111222,11111222,11111222' 
TABS,ioos:station:TABS:H:1,2007-01-02T12:30:00Z,27.8674,-96.5433,4.0,7.014164241,60.25476734,8.76,'11111222,11111222,11111222' 
TABS,ioos:station:TABS:H:1,2007-01-02T13:00:00Z,27.8674,-96.5433,4.0,7.504505313,63.91261173,9.46,'11111222,11111222,11111222' 
TABS,ioos:station:TABS:H:1,2007-01-02T13:30:00Z,27.8674,-96.5433,4.0,7.827803012,62.28882987,10.49,'11111222,11111222,11111222' 
TABS,ioos:station:TABS:H:1,2007-01-02T14:00:00Z,27.8674,-96.5433,4.0,7.960609273,57.04820408,9.43,'11111222,11111222,11111222' 
TABS,ioos:station:TABS:H:1,2007-01-02T14:30:00Z,27.8674,-96.5433,4.0,7.597170526,55.61931475,8.91,'11111222,11111222,11111222' 
TABS,ioos:station:TABS:H:1,2007-01-02T15:00:00Z,27.8674,-96.5433,4.0,7.562889659,52.25092956,8.82,'11111222,11111222,11111222' 
TABS,ioos:station:TABS:H:1,2007-01-02T15:30:00Z,27.8674,-96.5433,4.0,8.539707255,48.03739977,10.15,'11111222,11111222,11111222' 
TABS,ioos:station:TABS:H:1,2007-01-02T16:00:00Z,27.8674,-96.5433,4.0,9.079262085,45.08892979,10.76,'11111222,11111222,11111222' 
TABS,ioos:station:TABS:H:1,2007-01-02T16:30:00Z,27.8674,-96.5433,4.0,8.752468223,41.15482753,10.48,'11111222,11111222,11111222' 
TABS,ioos:station:TABS:H:1,2007-01-02T17:00:00Z,27.8674,-96.5433,4.0,8.576951673,41.73863586,10.68,'11111222,11111222,11111222' 
TABS,ioos:station:TABS:H:1,2007-01-02T17:30:00Z,27.8674,-96.5433,4.0,8.804845257,52.33585337,10.58,'11111222,11111222,11111222' 
TABS,ioos:station:TABS:H:1,2007-01-02T18:00:00Z,27.8674,-96.5433,4.0,8.409482743,54.77879424,9.83,'11111222,11111222,11111222' 
TABS,ioos:station:TABS:H:1,2007-01-02T18:30:00Z,27.8674,-96.5433,4.0,8.099444425,58.01676606,9.64,'11111222,11111222,11111222' 
TABS,ioos:station:TABS:H:1,2007-01-02T19:00:00Z,27.8674,-96.5433,4.0,8.174460227,57.18441344,9.77,'11111222,11111222,11111222' 
TABS,ioos:station:TABS:H:1,2007-01-02T19:30:00Z,27.8674,-96.5433,4.0,7.8938077,57.94041421,9.49,'11111222,11111222,11111222' 
TABS,ioos:station:TABS:H:1,2007-01-02T20:00:00Z,27.8674,-96.5433,4.0,8.392234506,60.44106645,10.09,'11111222,11111222,11111222' 
TABS,ioos:station:TABS:H:1,2007-01-02T20:30:00Z,27.8674,-96.5433,4.0,8.09862334,56.32921213,9.65,'11111222,11111222,11111222' 
TABS,ioos:station:TABS:H:1,2007-01-02T21:00:00Z,27.8674,-96.5433,4.0,7.905896534,57.39506216,9.82,'11111222,11111222,11111222' 
TABS,ioos:station:TABS:H:1,2007-01-02T21:30:00Z,27.8674,-96.5433,4.0,8.172129465,52.80725519,9.79,'11111222,11111222,11111222' 
TABS,ioos:station:TABS:H:1,2007-01-02T22:00:00Z,27.8674,-96.5433,4.0,8.453076363,49.94242536,10.01,'11111222,11111222,11111222' 
TABS,ioos:station:TABS:H:1,2007-01-02T22:30:00Z,27.8674,-96.5433,4.0,8.952228773,53.53938102,11.03,'11111222,11111222,11111222' 
TABS,ioos:station:TABS:H:1,2007-01-02T23:00:00Z,27.8674,-96.5433,4.0,9.00627559,55.58615436,10.74,'11111222,11111222,11111222' 
TABS,ioos:station:TABS:H:1,2007-01-02T23:30:00Z,27.8674,-96.5433,4.0,8.753422188,61.32649964,10.56,'11111222,11111222,11111222' 
TABS,ioos:station:TABS:H:1,2007-01-03T00:00:00Z,27.8674,-96.5433,4.0,8.703941636,67.6481406,10.38,'11111222,11111222,11111222' 
TABS,ioos:station:TABS:H:1,2007-01-03T00:30:00Z,27.8674,-96.5433,4.0,8.822136929,70.18852778,10.13,'11111222,11111222,11111222' 
TABS,ioos:station:TABS:H:1,2007-01-03T01:00:00Z,27.8674,-96.5433,4.0,8.72651706,74.03618312,10.15,'11111222,11111222,11111222' 
TABS,ioos:station:TABS:H:1,2007-01-03T01:30:00Z,27.8674,-96.5433,4.0,8.387156848,75.49944622,10.03,'11111222,11111222,11111222' 
TABS,ioos:station:TABS:H:1,2007-01-03T02:00:00Z,27.8674,-96.5433,4.0,8.440124407,71.62907459,9.48,'11111222,11111222,11111222' 
TABS,ioos:station:TABS:H:1,2007-01-03T02:30:00Z,27.8674,-96.5433,4.0,8.449573954,66.86336906,9.84,'11111222,11111222,11111222' 
TABS,ioos:station:TABS:H:1,2007-01-03T03:00:00Z,27.8674,-96.5433,4.0,8.08292645,59.43706733,9.59,'11111222,11111222,11111222' 
TABS,ioos:station:TABS:H:1,2007-01-03T03:30:00Z,27.8674,-96.5433,4.0,8.661368252,57.6857425,10.14,'11111222,11111222,11111222' 
TABS,ioos:station:TABS:H:1,2007-01-03T04:00:00Z,27.8674,-96.5433,4.0,8.763024592,54.00593954,9.97,'11111222,11111222,11111222' 
TABS,ioos:station:TABS:H:1,2007-01-03T04:30:00Z,27.8674,-96.5433,4.0,8.528540321,53.77471954,9.71,'11111222,11111222,11111222' 
TABS,ioos:station:TABS:H:1,2007-01-03T05:00:00Z,27.8674,-96.5433,4.0,8.671130261,54.05487646,9.99,'11111222,11111222,11111222' 
TABS,ioos:station:TABS:H:1,2007-01-03T05:30:00Z,27.8674,-96.5433,4.0,8.128179378,52.74911813,9.54,'11111222,11111222,11111222' 
TABS,ioos:station:TABS:H:1,2007-01-03T06:00:00Z,27.8674,-96.5433,4.0,8.273336691,57.78872668,9.84,'11111222,11111222,11111222' 
TABS,ioos:station:TABS:H:1,2007-01-03T06:30:00Z,27.8674,-96.5433,4.0,7.52554317,57.25985486,8.72,'11111222,11111222,11111222' 
TABS,ioos:station:TABS:H:1,2007-01-03T07:00:00Z,27.8674,-96.5433,4.0,8.337505622,56.84326688,10.16,'11111222,11111222,11111222' 
TABS,ioos:station:TABS:H:1,2007-01-03T07:30:00Z,27.8674,-96.5433,4.0,8.481249908,62.16559023,10.28,'11111222,11111222,11111222' 
TABS,ioos:station:TABS:H:1,2007-01-03T08:00:00Z,27.8674,-96.5433,4.0,8.518245124,61.84011248,9.91,'11111222,11111222,11111222' 
TABS,ioos:station:TABS:H:1,2007-01-03T08:30:00Z,27.8674,-96.5433,4.0,9.289354122,64.1517826,10.45,'11111222,11111222,11111222' 
TABS,ioos:station:TABS:H:1,2007-01-03T09:00:00Z,27.8674,-96.5433,4.0,9.684141676,68.49485885,11.29,'11111222,11111222,11111222' 
TABS,ioos:station:TABS:H:1,2007-01-03T09:30:00Z,27.8674,-96.5433,4.0,9.095630819,66.95819808,10.36,'11111222,11111222,11111222' 
TABS,ioos:station:TABS:H:1,2007-01-03T10:00:00Z,27.8674,-96.5433,4.0,8.330306117,68.30039728,9.73,'11111222,11111222,11111222' 
TABS,ioos:station:TABS:H:1,2007-01-03T10:30:00Z,27.8674,-96.5433,4.0,8.475435092,72.20601575,9.82,'11111222,11111222,11111222' 
TABS,ioos:station:TABS:H:1,2007-01-03T11:00:00Z,27.8674,-96.5433,4.0,8.681163516,69.85299511,10.45,'11111222,11111222,11111222' 
TABS,ioos:station:TABS:H:1,2007-01-03T11:30:00Z,27.8674,-96.5433,4.0,8.583763743,72.57790266,10.12,'11111222,11111222,11111222' 
TABS,ioos:station:TABS:H:1,2007-01-03T12:00:00Z,27.8674,-96.5433,4.0,9.579692062,70.67570696,11.24,'11111222,11111222,11111222' 
TABS,ioos:station:TABS:H:1,2007-01-03T12:30:00Z,27.8674,-96.5433,4.0,9.948115399,68.72228411,11.44,'11111222,11111222,11111222' 
TABS,ioos:station:TABS:H:1,2007-01-03T13:00:00Z,27.8674,-96.5433,4.0,9.095740761,66.47846355,10.79,'11111222,11111222,11111222' 
TABS,ioos:station:TABS:H:1,2007-01-03T13:30:00Z,27.8674,-96.5433,4.0,10.6889195,71.05614549,12.1,'11111222,11111222,11111222' 
TABS,ioos:station:TABS:H:1,2007-01-03T14:00:00Z,27.8674,-96.5433,4.0,10.23478871,74.23877163,12.25,'11111222,11111222,11111222' 
TABS,ioos:station:TABS:H:1,2007-01-03T14:30:00Z,27.8674,-96.5433,4.0,10.23080153,73.70805067,12.26,'11111222,11111222,11111222' 
TABS,ioos:station:TABS:H:1,2007-01-03T15:00:00Z,27.8674,-96.5433,4.0,10.1618207,80.08307615,11.74,'11111222,11111222,11111222' 
TABS,ioos:station:TABS:H:1,2007-01-03T15:30:00Z,27.8674,-96.5433,4.0,9.972462083,80.65062336,11.43,'11111222,11111222,11111222' 
TABS,ioos:station:TABS:H:1,2007-01-03T16:00:00Z,27.8674,-96.5433,4.0,9.190348198,79.97356544,11.39,'11111222,11111222,11111222' 
TABS,ioos:station:TABS:H:1,2007-01-03T16:30:00Z,27.8674,-96.5433,4.0,9.749446138,78.10186871,11.53,'11111222,11111222,11111222' 
TABS,ioos:station:TABS:H:1,2007-01-03T17:00:00Z,27.8674,-96.5433,4.0,10.18096754,83.23057846,11.63,'11111222,11111222,11111222' 
TABS,ioos:station:TABS:H:1,2007-01-03T17:30:00Z,27.8674,-96.5433,4.0,9.821776825,79.91389936,11.34,'11111222,11111222,11111222' 
TABS,ioos:station:TABS:H:1,2007-01-03T18:00:00Z,27.8674,-96.5433,4.0,10.24192365,81.52139061,12.08,'11111222,11111222,11111222' 
TABS,ioos:station:TABS:H:1,2007-01-03T18:30:00Z,27.8674,-96.5433,4.0,10.64248561,82.44052978,12.8,'11111222,11111222,11111222' 
TABS,ioos:station:TABS:H:1,2007-01-03T19:00:00Z,27.8674,-96.5433,4.0,11.1398833,75.60161106,12.82,'11111222,11111222,11111222' 
TABS,ioos:station:TABS:H:1,2007-01-03T19:30:00Z,27.8674,-96.5433,4.0,10.80555875,71.38022797,12.95,'11111222,11111222,11111222' 
TABS,ioos:station:TABS:H:1,2007-01-03T20:00:00Z,27.8674,-96.5433,4.0,9.945677453,72.02011406,12.83,'11111222,11111222,11111222' 
TABS,ioos:station:TABS:H:1,2007-01-03T20:30:00Z,27.8674,-96.5433,4.0,10.64410165,76.9686811,12.34,'11111222,11111222,11111222' 
TABS,ioos:station:TABS:H:1,2007-01-03T21:00:00Z,27.8674,-96.5433,4.0,10.71972481,79.79036888,12.98,'11111222,11111222,11111222' 
TABS,ioos:station:TABS:H:1,2007-01-03T21:30:00Z,27.8674,-96.5433,4.0,11.64001718,81.10374292,14.73,'11111222,11111222,11111222' 
TABS,ioos:station:TABS:H:1,2007-01-03T22:00:00Z,27.8674,-96.5433,4.0,11.85326959,80.77567837,14.31,'11111222,11111222,11111222' 
TABS,ioos:station:TABS:H:1,2007-01-03T22:30:00Z,27.8674,-96.5433,4.0,11.07718376,78.12160453,13.32,'11111222,11111222,11111222' 
TABS,ioos:station:TABS:H:1,2007-01-03T23:00:00Z,27.8674,-96.5433,4.0,11.70908195,79.41902546,14.08,'11111222,11111222,11111222' 
TABS,ioos:station:TABS:H:1,2007-01-03T23:30:00Z,27.8674,-96.5433,4.0,9.99162149,82.23443122,12.06,'11111222,11111222,11111222' 
TABS,ioos:station:TABS:H:1,2007-01-04T00:00:00Z,27.8674,-96.5433,4.0,8.010106117,81.88972725,9.58,'11111222,11111222,11111222' 
TABS,ioos:station:TABS:H:1,2007-01-04T00:30:00Z,27.8674,-96.5433,4.0,7.082407783,119.8957463,9.71,'11111222,11111222,11111222' 
TABS,ioos:station:TABS:H:1,2007-01-04T01:00:00Z,27.8674,-96.5433,4.0,7.012310604,114.5187021,8.95,'11111222,11111222,11111222' 
TABS,ioos:station:TABS:H:1,2007-01-04T01:30:00Z,27.8674,-96.5433,4.0,8.154121657,115.4969371,9.83,'11111222,11111222,11111222' 
TABS,ioos:station:TABS:H:1,2007-01-04T02:00:00Z,27.8674,-96.5433,4.0,9.684756063,117.8883999,11.89,'11111222,11111222,11111222' 
TABS,ioos:station:TABS:H:1,2007-01-04T02:30:00Z,27.8674,-96.5433,4.0,11.15965949,122.0383826,14.33,'11111222,11111222,11111222' 
TABS,ioos:station:TABS:H:1,2007-01-04T03:00:00Z,27.8674,-96.5433,4.0,12.03822246,124.5088632,15.0,'11111222,11111222,11111222' 
TABS,ioos:station:TABS:H:1,2007-01-04T03:30:00Z,27.8674,-96.5433,4.0,13.34794741,127.8489628,16.49,'11111222,11111222,11111222' 
TABS,ioos:station:TABS:H:1,2007-01-04T04:00:00Z,27.8674,-96.5433,4.0,13.24424403,130.0385366,16.5,'11111222,11111222,11111222' 
TABS,ioos:station:TABS:H:1,2007-01-04T04:30:00Z,27.8674,-96.5433,4.0,12.36796669,131.5915442,14.83,'11111222,11111222,11111222' 
TABS,ioos:station:TABS:H:1,2007-01-04T05:00:00Z,27.8674,-96.5433,4.0,13.8593831,133.1583647,17.05,'11111222,11111222,11111222' 
TABS,ioos:station:TABS:H:1,2007-01-04T05:30:00Z,27.8674,-96.5433,4.0,6.350598397,210.8865308,11.46,'11111222,11111222,11111222' 
TABS,ioos:station:TABS:H:1,2007-01-04T06:00:00Z,27.8674,-96.5433,4.0,13.17165517,295.7868278,17.67,'11111222,11111222,11111222' 
TABS,ioos:station:TABS:H:1,2007-01-04T06:30:00Z,27.8674,-96.5433,4.0,13.43265052,308.9261763,17.23,'11111222,11111222,11111222' 
TABS,ioos:station:TABS:H:1,2007-01-04T07:00:00Z,27.8674,-96.5433,4.0,12.87310374,313.6149951,16.31,'11111222,11111222,11111222' 
TABS,ioos:station:TABS:H:1,2007-01-04T07:30:00Z,27.8674,-96.5433,4.0,13.0299079,326.297605,16.45,'11111222,11111222,11111222' 
TABS,ioos:station:TABS:H:1,2007-01-04T08:00:00Z,27.8674,-96.5433,4.0,12.40764684,342.6017298,16.1,'11111222,11111222,11111222' 
TABS,ioos:station:TABS:H:1,2007-01-04T08:30:00Z,27.8674,-96.5433,4.0,11.54653195,344.0135347,14.47,'11111222,11111222,11111222' 
TABS,ioos:station:TABS:H:1,2007-01-04T09:00:00Z,27.8674,-96.5433,4.0,9.4764181,354.9750642,11.69,'11111222,11111222,11111222' 
TABS,ioos:station:TABS:H:1,2007-01-04T09:30:00Z,27.8674,-96.5433,4.0,8.390518458,357.1305709,10.31,'11111222,11111222,11111222' 
TABS,ioos:station:TABS:H:1,2007-01-04T10:00:00Z,27.8674,-96.5433,4.0,7.234638899,356.3543017,8.98,'11111222,11111222,11111222' 
TABS,ioos:station:TABS:H:1,2007-01-04T10:30:00Z,27.8674,-96.5433,4.0,6.213034685,6.747322879,7.54,'11111222,11111222,11111222' 
TABS,ioos:station:TABS:H:1,2007-01-04T11:00:00Z,27.8674,-96.5433,4.0,5.421558816,352.9010061,6.36,'11111222,11111222,11111222' 
TABS,ioos:station:TABS:H:1,2007-01-04T11:30:00Z,27.8674,-96.5433,4.0,3.761608698,358.3240651,5.2,'11111222,11111222,11111222' 
TABS,ioos:station:TABS:H:1,2007-01-04T12:00:00Z,27.8674,-96.5433,4.0,3.042778336,325.578629,4.16,'11111222,11111222,11111222' 
TABS,ioos:station:TABS:H:1,2007-01-04T12:30:00Z,27.8674,-96.5433,4.0,3.726338686,321.0999405,5.8,'11111222,11111222,11111222' 
TABS,ioos:station:TABS:H:1,2007-01-04T13:00:00Z,27.8674,-96.5433,4.0,3.454533254,301.9877276,4.94,'11111222,11111222,11111222' 
TABS,ioos:station:TABS:H:1,2007-01-04T13:30:00Z,27.8674,-96.5433,4.0,8.44618257,286.9331167,10.53,'11111222,11111222,11111222' 
TABS,ioos:station:TABS:H:1,2007-01-04T14:00:00Z,27.8674,-96.5433,4.0,9.034207215,292.1075605,11.32,'11111222,11111222,11111222' 
TABS,ioos:station:TABS:H:1,2007-01-04T14:30:00Z,27.8674,-96.5433,4.0,6.307979074,308.3050823,7.92,'11111222,11111222,11111222' 
TABS,ioos:station:TABS:H:1,2007-01-04T15:00:00Z,27.8674,-96.5433,4.0,6.887670143,297.3090465,8.59,'11111222,11111222,11111222' 
TABS,ioos:station:TABS:H:1,2007-01-04T15:30:00Z,27.8674,-96.5433,4.0,6.498199751,330.3971503,8.35,'11111222,11111222,11111222' 
TABS,ioos:station:TABS:H:1,2007-01-04T16:00:00Z,27.8674,-96.5433,4.0,7.244805035,306.0156602,9.31,'11111222,11111222,11111222' 
TABS,ioos:station:TABS:H:1,2007-01-04T16:30:00Z,27.8674,-96.5433,4.0,6.025188794,308.7339734,7.72,'11111222,11111222,11111222' 
TABS,ioos:station:TABS:H:1,2007-01-04T17:00:00Z,27.8674,-96.5433,4.0,5.652123495,310.62319,7.08,'11111222,11111222,11111222' 
TABS,ioos:station:TABS:H:1,2007-01-04T17:30:00Z,27.8674,-96.5433,4.0,6.173815676,317.8885096,7.8,'11111222,11111222,11111222' 
TABS,ioos:station:TABS:H:1,2007-01-04T18:00:00Z,27.8674,-96.5433,4.0,4.639450398,324.5626882,5.72,'11111222,11111222,11111222' 
TABS,ioos:station:TABS:H:1,2007-01-04T18:30:00Z,27.8674,-96.5433,4.0,3.838150596,322.6224218,4.8,'11111222,11111222,11111222' 
TABS,ioos:station:TABS:H:1,2007-01-04T19:00:00Z,27.8674,-96.5433,4.0,4.73760488,286.1779288,7.61,'11111222,11111222,11111222' 
TABS,ioos:station:TABS:H:1,2007-01-04T19:30:00Z,27.8674,-96.5433,4.0,3.94848072,337.2013826,5.54,'11111222,11111222,11111222' 
TABS,ioos:station:TABS:H:1,2007-01-04T20:00:00Z,27.8674,-96.5433,4.0,3.467938869,290.4206381,5.18,'11111222,11111222,11111222' 
TABS,ioos:station:TABS:H:1,2007-01-04T20:30:00Z,27.8674,-96.5433,4.0,0.536003731,143.3441878,1.3,'11111222,11111222,11111222' 